Find Starlink 32376

NORAD ID: 61707 Int'l Des: 2024-196 Owner: SPXS Country: US Constellation: starlink operational
LEOCIRCULAR

Current View

Loading 3D Globe...

About Starlink 32376

Starlink 32376 (NORAD 61707) is a starlink constellation satellite (v2 mini) launched Oct 30, 2024 by SPXS of US. It operates in LEO, CIRCULAR orbit with a mass of 730.00 kg.

Upcoming Passes

Passes for default location (London). Set your location on the main map for personalized predictions.

Altitude History

Loading altitude history...

Two-Line Element Set

1 61707U 24196A 26235.47544308 .00000082 00000-0 13555-4 0 9999
2 61707 53.1613 44.4166 0001194 90.4492 269.6647 15.34390847102737
Epoch: Aug 23, 2026 • Age: 18 hours

Current Status

Altitude 463.1 km
Apogee / Perigee N/A
Velocity 7.64 km/s
Sub-Earth Point 4.16°N, 164.83°E
Launch Date Oct 30, 2024
Age 1.8 years
Type internet

Technical Details

Classification Payload
Mass 730.00 kg
Dry Mass 700.00 kg
Total Mass 730.00 kg
Length 0.30 m
Diameter 4.10 m
Span 29.00 m
Shape Box + pan
Manufacturer SPXS
Bus Type Starlink V2M
Phase Status In Orbit
Owner/State SPXS/US

Most Searched